Rochester, MN
on Friday, November 2, 2012

Friday
Previous Day Next Day
Daily Summary
 ActualAverageRecord
Temperature
Mean Temperature °F 41°F  
Max Temperature 44°F 50°F 74°F (1953)
Min Temperature 26°F 33°F 8°F (1951)
Degree Days
Heating Degree Days 30 24  
Month to date heating degree days 55 47  
Since 1 July heating degree days 720 783  
Cooling Degree Days 0 0  
Month to date cooling degree days 0 0  
Year to date cooling degree days 888 585  
Moisture
Dew Point 23°F   
Average Humidity 65    
Maximum Humidity 81    
Minimum Humidity 49    
Precipitation
Precipitation 0.00 in 0.06 in 0.67 in (1992)
Month to date precipitation 0.00 0.13  
Year to date precipitation 22.55 30.01  
Snow
Snow 0.00 in 0.10 in 2.90 in (1928)
Month to date snowfall 0.0 0.2  
Since 1 July snowfall 0.0 1.0  
Snow Depth 0.00 in   
Wind
Wind Speed 5 mph   
Max Wind Speed 12 mph   
Max Gust Speed 14 mph   
Visibility 10 miles   
Events     

Key: T is trace of precipitation, MM is missing value
Source: NWS Daily Summary
Time(CDT)TemperatureDew PointHumidity Pressure Visibility Wind DirectionWind SpeedGust SpeedPrecipitationEvents Conditions
12:54 AM 30.0°F 21.0°F 69% 30.07 in 10.0 miles NNW 6.9 mph - N/A   Clear
1:54 AM 28.9°F 21.0°F 72% 30.08 in 10.0 miles North 6.9 mph - N/A   Clear
2:54 AM 28.0°F 19.9°F 72% 30.09 in 10.0 miles North 6.9 mph - N/A   Clear
3:54 AM 27.0°F 19.9°F 75% 30.09 in 10.0 miles NNW 5.8 mph - N/A   Clear
4:54 AM 27.0°F 19.9°F 75% 30.09 in 10.0 miles North 5.8 mph - N/A   Clear
5:54 AM 26.1°F 19.9°F 78% 30.12 in 10.0 miles NNW 4.6 mph - N/A   Clear
6:54 AM 27.0°F 21.0°F 78% 30.12 in 10.0 miles North 4.6 mph - N/A   Clear
7:54 AM 27.0°F 19.9°F 75% 30.12 in 10.0 miles NNE 5.8 mph - N/A   Clear
8:54 AM 30.9°F 23.0°F 72% 30.15 in 10.0 miles NNE 5.8 mph - N/A   Clear
9:54 AM 34.0°F 26.1°F 73% 30.16 in 10.0 miles ENE 6.9 mph - N/A   Clear
10:54 AM 37.0°F 27.0°F 67% 30.17 in 10.0 miles East 6.9 mph - N/A   Clear
11:54 AM 39.0°F 26.1°F 60% 30.16 in 10.0 miles East 4.6 mph - N/A   Clear
12:54 PM 42.1°F 25.0°F 51% 30.17 in 10.0 miles NE 3.5 mph - N/A   Clear
1:54 PM 42.1°F 25.0°F 51% 30.15 in 10.0 miles Variable 3.5 mph - N/A   Clear
2:54 PM 43.0°F 25.0°F 49% 30.14 in 10.0 miles NE 3.5 mph - N/A   Partly Cloudy
3:54 PM 43.0°F 25.0°F 49% 30.12 in 10.0 miles NE 10.4 mph - N/A   Overcast
4:54 PM 42.1°F 24.1°F 49% 30.13 in 10.0 miles ENE 5.8 mph - N/A   Partly Cloudy
5:54 PM 39.9°F 24.1°F 53% 30.14 in 10.0 miles NNE 4.6 mph - N/A   Clear
6:54 PM 39.0°F 24.1°F 55% 30.15 in 10.0 miles NNE 5.8 mph - N/A   Mostly Cloudy
7:54 PM 37.9°F 23.0°F 55% 30.16 in 10.0 miles NNE 6.9 mph - N/A   Mostly Cloudy
8:54 PM 39.0°F 24.1°F 55% 30.16 in 10.0 miles NNE 5.8 mph - N/A   Mostly Cloudy
9:54 PM 39.0°F 24.1°F 55% 30.17 in 10.0 miles NE 5.8 mph - N/A   Overcast
10:54 PM 39.0°F 25.0°F 57% 30.17 in 10.0 miles NE 4.6 mph - N/A   Overcast
11:54 PM 39.0°F 25.0°F 57% 30.18 in 10.0 miles NE 4.6 mph - N/A   Overcast
Astronomy
Sunrise:07:48 AM (CDT) Moon Rise:08:41 PM (CDT)11/2
Sunset:05:58 PM (CDT) Moon Set:11:13 AM (CDT)11/2
Moon Phase
Nov. 02 Nov. 07 Nov. 13 Nov. 20 Nov. 28

Copyright © 2017 The Weather Underground, Inc.